Flag for Switzerland Weather past 2 weeks in Davos, Graubünden, Switzerland

Now
63 °F

Mild.


Feels Like: 63 °F
Forecast: 36 / 60 °F
Wind: 1 mph from Northwest

Location: Chur-Ems

Current Time: Oct 2, 2014 at 1:18:57 PM

Latest Report: Oct 2, 2014 at 12:00 PM


Visibility: N/A

Pressure: 30.31 "Hg

Humidity: 57%

Dew point: 48 °F

Location of DavosLocation

Historic Weather in Davos — Graph

°F

Davos temperature yesterday

Maximum temperature yesterday: 64 °F (at 12:00 PM)
Minimum temperature yesterday: 54 °F (at 11:00 PM)
Average temperature yesterday: 58 °F

Past Weeks' High & Low Weather Summary

 TemperatureHumidityPressure
High75 °F (Sep 18, 12:00 PM)95% (Sep 30, 11:00 PM)30.39 "Hg (Sep 30, 11:00 PM)
Low42 °F (Sep 23, 8:00 AM)33% (Sep 29, 1:00 PM)29.85 "Hg (Sep 18, 12:00 PM)
Average58 °F73%30.16 "Hg
* Reported Sep 17 2:00 PM — Oct 2 12:00 Noon, Davos, Weather by CustomWeather, © 2014

Note: Actual official high and low records may vary slightly from our data, if they occured in-between our weather recording intervals... More about our weather records

Advertising

Davos weather history for previous 24 hours

 ConditionsComfort  
Time TempWeatherWind HumidityBarometerVisibility
12:00 PM
Oct 2
63 °FMild.1 mph57%30.31 "HgN/A
11:00 AM61 °FScattered clouds.3 mph63%30.34 "Hg12 mi
10:00 AM55 °FCool.2 mph82%30.37 "HgN/A
9:00 AM54 °FCool.5 mph84%30.38 "HgN/A
8:00 AM51 °FPartly sunny.1 mph92%30.39 "Hg11 mi
7:00 AM51 °FCool.No wind93%30.39 "HgN/A
6:00 AM53 °FCool.2 mph91%30.37 "HgN/A
5:00 AM54 °FPassing clouds.3 mph87%30.37 "Hg12 mi
4:00 AM54 °FCool.1 mph89%30.37 "HgN/A
3:00 AM54 °FCool.No wind92%30.38 "HgN/A
2:00 AM55 °FCool.2 mph91%30.38 "HgN/A
1:00 AM55 °FCool.2 mph81%30.38 "HgN/A
12:00 AM55 °FCool.1 mph91%30.38 "HgN/A
11:00 PM
Oct 1
54 °FPassing clouds.3 mph88%30.38 "Hg9 mi
10:00 PM56 °FCool.1 mph91%30.37 "HgN/A
9:00 PM56 °FCool.1 mph93%30.35 "HgN/A
8:00 PM56 °FFog.1 mph94%30.33 "Hg9 mi
7:00 PM58 °FCool.1 mph92%30.31 "HgN/A
6:00 PM60 °FCool.7 mph89%30.29 "HgN/A
5:00 PM62 °FFog.10 mph83%30.28 "Hg4 mi
4:00 PM62 °FMild.12 mph81%30.27 "HgN/A
3:00 PM61 °FCool.8 mph85%30.28 "HgN/A
2:00 PM64 °FFog.12 mph73%30.27 "Hg2 mi
1:00 PM64 °FMild.12 mph76%30.28 "HgN/A
Weather by CustomWeather, © 2014

See weather overviewHow to use our weather pages